Tracking 32954 objects as of 19-Jan-2026
HD Live streaming from Space Station
objects crossing your sky now

HELIOS 1A

Track HELIOS 1A now!
10-day predictions
HELIOS 1A is classified as:


NORAD ID: 23605
Int'l Code: 1995-033A
Perigee: 550.6 km
Apogee: 567.9 km
Inclination: 98.2 °
Period: 95.7 minutes
Semi major axis: 6930 km
RCS: Unknown
Launch date: July 7, 1995
Source: France (FR)
Launch site: FRENCH GUIANA (FRGUI)

Optical reconnaissance; cannot see through clouds or at night.
Your satellite tracking list
Your tracking list is empty




NASA's NSSDC Master Catalog

Two Line Element Set (TLE):
1 23605U 95033A   26019.24082888  .00002651  00000-0  19250-3 0  9998
2 23605  98.2167 260.1841 0012521 163.6888 196.4742 15.04804294645751
Source of the keplerian elements: McCants